Погода в Леванто

Италия     44°10′16″N   9°36′41″E
темп.,
°C
ветер,
м/с
пор.,
м/с
влажн.,
%
обл.,
%
осадки,
мм/ч
давл.,
гПа
погр.,
м
24 мая, вт
вт2423:00+16в35927 0.0 1008121
02:00+15в3594100 0.0 1008142
05:00+15в3494100 0.0 1007148
08:00+17в2483100 0.1 1008192
11:00+18ююв3792100 0.9 1008549
14:00+20ююв2476100 1.3 1009767
17:00+22ю346614 0.1 1007812
20:00+19юв248879 0.1 1008183
25 мая, ср
ср2523:00+16в339610 0.0 101073
02:00+15всв33955 0.0 101095
05:00+15всв339355 0.0 101158
08:00+19ссв1277100 0.0 1012108
11:00+23юз2158100 0.1 1013805
14:00+23ююз226099 0.1 1013763
17:00+24юз1252100 0.0 1014681
20:00+20всв017550 0.0 101522
26 мая, чт
чт2623:00+18св228399 0.0 101730
02:00+18ссв338187 0.0 101864
05:00+18св327971 0.0 101742
08:00+21ссв237485 0.0 1018164
11:00+25юз11555 0.1 1019910
14:00+26зюз114699 0.1 1018830
17:00+26ю124656 0.0 1018534
20:00+23ссв3263100 0.0 101728
27 мая, пт
пт2723:00+20св337538 0.0 101944
02:00+19св337324 0.0 101836
05:00+19св326922 0.0 101831
08:00+22ссв226489 0.0 1018100
11:00+26зюз2144100 0.0 1018829
14:00+27зсз2241100 0.0 1017655
17:00+27сз1234100 0.0 1015530
20:00+23с32565 0.0 101429
28 мая, сб
сб2823:00+20ссв3255100 0.0 101523
02:00+19св336080 0.0 101336
05:00+19ссв335237 0.0 101238
08:00+22всв22590 0.0 101166
11:00+26ююз21410 0.0 1011650
14:00+28юз22374 0.0 1009787
17:00+26зюз23490 0.0 1008489
20:00+22з00720 0.0 100812